Location: Zlin
(49.2330°N, 17.6670°E)
Time: 04:00:31
(UTC+01:00)

ISS - Visible Passes

Search period start: 22 March 2023 00:00
Search period end: 01 April 2023 01:00
Orbit: 414 x 423 km, 51.6° (Epoch: 22 March)

Date Brightness Start Highest point End Pass type
(mag) Time Alt. Az. Time Alt. Az. Time Alt. Az.
22 Mar -3.7 18:41:36 10° WSW 18:44:58 86° NNW 18:48:20 10° ENE visible
22 Mar -3.0 20:18:38 10° WNW 20:21:37 51° NNW 20:21:37 51° NNW visible
23 Mar -3.3 19:30:45 10° W 19:34:03 55° N 19:35:46 25° ENE visible
23 Mar -1.0 21:07:42 10° WNW 21:08:43 18° WNW 21:08:43 18° WNW visible
24 Mar -3.3 18:42:49 10° W 18:46:08 60° N 18:49:28 10° ENE visible
24 Mar -3.3 20:19:49 10° WNW 20:22:47 58° NNW 20:22:47 58° NNW visible
25 Mar -3.4 19:31:55 10° WNW 19:35:13 57° N 19:36:50 27° ENE visible
25 Mar -1.0 21:08:45 10° WNW 21:09:46 18° WNW 21:09:46 18° WNW visible
26 Mar -3.2 19:43:56 10° WNW 19:47:14 54° N 19:50:33 10° E visible
26 Mar -3.5 21:20:49 10° WNW 21:23:46 66° W 21:23:46 66° W visible
27 Mar -3.8 20:32:52 10° WNW 20:36:14 77° NNE 20:37:45 30° E visible
27 Mar -1.0 22:09:51 10° W 22:10:41 15° W 22:10:41 15° W visible
28 Mar -3.5 19:44:53 10° WNW 19:48:13 64° N 19:51:33 10° E visible
28 Mar -2.9 21:21:45 10° WNW 21:24:40 42° SW 21:24:40 42° SW visible
29 Mar -3.6 20:33:41 10° WNW 20:37:01 62° SSW 20:38:39 27° SE visible
29 Mar -0.7 22:11:29 10° WSW 22:11:35 10° WSW 22:11:35 10° WSW visible
30 Mar -3.7 19:45:38 10° WNW 19:49:00 85° SSW 19:52:21 10° ESE visible
30 Mar -1.8 21:22:52 10° W 21:25:25 20° SW 21:25:34 20° SW visible
31 Mar -2.3 20:34:31 10° W 20:37:31 30° SW 20:39:36 16° SSE visible
